Tracking 19484 objects as of 19-Jan-2019
HD Live streaming from Space Station
objects crossing your sky now

COSMOS 2095

Track COSMOS 2095 now!
10-day predictions
COSMOS 2095 is classified as:


NORAD ID: 20740
Int'l Code: 1990-070F
Perigee: 1,389.8 km
Apogee: 1,420.5 km
Inclination: 82.6 °
Period: 113.7 minutes
Semi major axis: 7776 km
RCS: 1.1684 m2 (large)
Launch date: August 8, 1990
Source: Commonwealth of Independent States (former USSR) (CIS)
Launch site: PLESETSK MISSILE AND SPACE COMPLEX (PKMTR)
aabbcc
Your satellite tracking list
Your tracking list is empty




NASA's NSSDC Master Catalog

Two Line Element Set (TLE):
1 20740U 90070F   19017.97124866 +.00000039 +00000-0 +14879-3 0  9994
2 20740 082.5710 208.2448 0019696 073.4425 040.9763 12.66063468314449
Source of the keplerian elements: AFSPC